This demonstration page uses our WeatherBlox Daily Observations layout. Learn more.

40.92945, -100.16068

Hourly Observations for March 6, 2017

Temp ( °F °C ) Dew Point ( °F °C ) Humidity (%) Winds ( mph kmh ) Pressure ( in mb ) Visibility ( mi km ) Precip ( " mm )
12:15 am 00:15 Clear 59 15 47 8.5 65 65 S 20 31 29.38 995 10 16.0934 0 0
12:35 am 00:35 Clear 59 15 47 8.2 64 64 S 21 33 29.38 995 10 16.0934 0 0
12:55 am 00:55 Clear 59 15.1 46 7.9 62 62 S 21 33 29.35 994 10 16.0934 0 0
1:15 am 01:15 Clear 58 14.3 45 7.4 63 63 S 15 24 29.35 994 10 16.0934 0 0
1:35 am 01:35 Clear 57 13.9 45 7.1 64 64 S 16 26 29.38 995 10 16.0934 0 0
1:55 am 01:55 Clear 56 13.5 44 6.5 63 63 S 13 20 29.38 995 10 16.0934 0 0
2:15 am 02:15 Clear 56 13.5 42 5.5 59 59 S 15 24 29.38 995 10 16.0934 0 0
2:35 am 02:35 Clear 57 13.9 42 5.8 58 58 S 17 28 29.32 993 10 16.0934 0 0
2:55 am 02:55 Clear 57 14 44 6.5 61 61 S 23 37 29.32 993 10 16.0934 0 0
3:15 am 03:15 Clear 57 14 45 7.1 63 63 S 24 39 29.32 993 10 16.0934 0 0
3:35 am 03:35 Clear 57 14.1 46 7.5 65 65 S 24 39 29.29 992 10 16.0934 0 0
3:55 am 03:55 Clear 56 13.6 45 7.4 66 66 S 22 35 29.29 992 10 16.0934 0 0
4:15 am 04:15 Clear 56 13.2 45 7.3 68 68 S 24 39 29.32 993 10 16.0934 0 0
4:35 am 04:35 Clear 55 12.9 45 7 68 68 S 21 33 29.32 993 10 16.0934 0 0
4:55 am 04:55 Clear 54 12.2 45 7 71 71 S 18 30 29.32 993 10 16.0934 0 0
5:15 am 05:15 Clear 54 12 45 7 72 72 S 23 37 29.32 993 10 16.0934 0 0
5:35 am 05:35 Clear 53 11.5 43 6.2 70 70 S 20 31 29.32 993 10 16.0934 0 0
5:55 am 05:55 Clear 53 11.5 42 5.5 67 67 S 20 31 29.32 993 10 16.0934 0 0
6:15 am 06:15 Clear 52 10.9 41 4.9 67 67 S 18 30 29.32 993 10 16.0934 0 0
6:35 am 06:35 Clear 51 10.8 38 3.4 61 61 S 22 35 29.32 993 10 16.0934 0 0
6:55 am 06:55 Clear 51 10.6 37 2.6 58 58 SSW 20 31 29.32 993 10 16.0934 0 0
7:15 am 07:15 Sunny 50 10.2 36 2.1 57 57 S 18 30 29.32 993 10 16.0934 0 0
7:35 am 07:35 Sunny 51 10.5 36 2 56 56 S 22 35 29.32 993 10 16.0934 0 0
7:55 am 07:55 Sunny 52 11.1 37 2.5 56 56 S 22 35 29.32 993 10 16.0934 0 0
8:15 am 08:15 Sunny 54 12 37 2.6 53 53 S 24 39 29.32 993 10 16.0934 0 0
8:35 am 08:35 Sunny 55 12.7 35 1.7 47 47 SSW 24 39 29.32 993 10 16.0934 0 0
8:55 am 08:55 Sunny 56 13.5 34 0.9 42 42 SSW 24 39 29.29 992 10 16.0934 0 0
9:15 am 09:15 Sunny 58 14.5 32 0.2 38 38 SSW 23 37 29.29 992 10 16.0934 0 0
9:35 am 09:35 Sunny 60 15.5 31 -0.6 33 33 SSW 24 39 29.29 992 10 16.0934 0 0
9:55 am 09:55 Sunny 61 16.3 30 -1.1 31 31 SSW 23 37 29.29 992 10 16.0934 0 0
10:15 am 10:15 Sunny 63 17.2 29 -1.7 28 28 SSW 21 33 29.26 991 10 16.0934 0 0
10:35 am 10:35 Sunny 64 18 28 -2 26 26 SSW 24 39 29.26 991 10 16.0934 0 0
10:55 am 10:55 Sunny 66 18.8 28 -2 24 24 WSW 16 26 29.26 991 10 16.0934 0 0
11:15 am 11:15 Sunny 67 19.5 27 -2.6 22 22 W 13 20 29.26 991 10 16.0934 0 0
11:35 am 11:35 Sunny 69 20.5 26 -3.4 20 20 W 18 30 29.21 989 10 16.0934 0 0
11:55 am 11:55 Partly Cloudy 69 20.3 23 -4.8 18 18 W 22 35 29.26 991 10 16.0934 0 0
12:15 pm 12:15 Sunny 69 20.8 19 -7.3 14 14 W 24 39 29.21 989 10 16.0934 0 0
12:35 pm 12:35 Sunny 64 17.5 26 -3.4 24 24 NW 38 61 29.26 991 7 11.26538 0 0
12:55 pm 12:55 Sunny 63 17.2 26 -3.5 24 24 WNW 35 56 29.26 991 10 16.0934 0 0
1:15 pm 13:15 Sunny 62 16.5 21 -5.9 21 21 WNW 33 54 29.32 993 10 16.0934 0 0
1:35 pm 13:35 Hazy 60 15.8 15 -9.2 17 17 WNW 33 54 29.32 993 5 8.0467 0 0
1:55 pm 13:55 Sunny 60 15.7 15 -9.5 17 17 WNW 37 59 29.35 994 10 16.0934 0 0
2:15 pm 14:15 Partly Cloudy 60 15.5 17 -8.6 18 18 WNW 32 52 29.35 994 10 16.0934 0 0
2:35 pm 14:35 Partly Cloudy 59 15 16 -8.9 18 18 WNW 41 67 29.38 995 7 11.26538 0 0
2:55 pm 14:55 Mostly Cloudy 56 13.3 14 -9.9 19 19 WNW 37 59 29.44 997 10 16.0934 0 0
3:15 pm 15:15 Mostly Cloudy 55 12.9 13 -10.8 18 18 W 32 52 29.44 997 10 16.0934 0 0
3:35 pm 15:35 Cloudy 54 12.3 15 -9.7 21 21 WNW 37 59 29.47 998 10 16.0934 0 0
3:55 pm 15:55 Cloudy 53 11.5 11 -11.9 18 18 WNW 36 57 29.53 1000 10 16.0934 0 0
4:15 pm 16:15 Cloudy 52 11.2 8 -13.2 17 17 W 32 52 29.56 1001 10 16.0934 0 0
4:35 pm 16:35 Mostly Cloudy 52 11.2 3 -15.9 13 13 W 33 54 29.56 1001 10 16.0934 0 0
4:55 pm 16:55 Partly Cloudy 51 10.5 8 -13.5 17 17 WNW 31 50 29.53 1000 10 16.0934 0 0
5:15 pm 17:15 Partly Cloudy 49 9.5 17 -8.5 27 27 WNW 41 67 29.59 1002 7 11.26538 0 0
5:35 pm 17:35 Hazy 45 7.2 21 -6 39 39 WNW 47 76 29.62 1003 5 8.0467 0 0
5:55 pm 17:55 Sunny 42 5.7 22 -5.7 44 44 WNW 33 54 29.68 1005 10 16.0934 0 0
6:15 pm 18:15 Sunny 42 5.5 19 -7.2 40 40 WNW 29 46 29.68 1005 10 16.0934 0 0
6:35 pm 18:35 Sunny 40 4.5 23 -5 50 50 WNW 35 56 29.74 1007 10 16.0934 0 0
6:55 pm 18:55 Clear 39 4 23 -5.1 52 52 NW 35 56 29.74 1007 10 16.0934 0 0
7:15 pm 19:15 Partly Cloudy 38 3.4 24 -4.7 56 56 NW 38 61 29.77 1008 10 16.0934 0 0
7:35 pm 19:35 Windy with Snow Likely 35 1.8 29 -1.8 77 77 WNW 31 50 29.8 1009 1.5 2.41401 0 0
7:55 pm 19:55 Cloudy 36 2.4 27 -2.6 70 70 WNW 31 50 29.83 1010 10 16.0934 0 0
8:15 pm 20:15 Cloudy 36 2 27 -2.7 71 71 NW 26 43 29.83 1010 10 16.0934 0 0
8:35 pm 20:35 Partly Cloudy 35 1.6 26 -3.3 70 70 NW 22 35 29.83 1010 10 16.0934 0 0
8:55 pm 20:55 Partly Cloudy 35 1.5 26 -3.5 70 70 WNW 17 28 29.88 1012 10 16.0934 0 0
9:15 pm 21:15 Partly Cloudy 34 0.9 25 -3.7 72 72 WNW 13 20 29.88 1012 10 16.0934 0 0
9:35 pm 21:35 Clear 32 0.1 25 -3.9 75 75 WNW 10 17 29.91 1013 10 16.0934 0 0
9:55 pm 21:55 Mostly Cloudy 32 0 25 -3.8 76 76 W 9 15 29.91 1013 10 16.0934 0 0
10:15 pm 22:15 Partly Cloudy 30 -1 24 -4.2 79 79 W 10 17 29.91 1013 10 16.0934 0 0
10:35 pm 22:35 Clear 29 -1.5 24 -4.7 79 79 W 9 15 29.94 1014 10 16.0934 0 0
10:55 pm 22:55 Clear 30 -1.1 24 -4.6 77 77 WSW 9 15 29.97 1015 10 16.0934 0 0
11:15 pm 23:15 Clear 31 -0.5 22 -5.6 69 69 W 14 22 29.94 1014 10 16.0934 0 0
11:35 pm 23:35 Clear 32 0 21 -6 64 64 W 14 22 29.97 1015 10 16.0934 0 0
11:55 pm 23:55 Clear 32 -0.2 21 -6 65 65 W 12 19 29.97 1015 10 16.0934 0 0

Powered by AerisWeather